500  
ASUS44 KSHV 021410  
RWRSHV  
 
THE FOUR STATE AREA WEATHER ROUNDUP  
NATIONAL WEATHER SERVICE SHREVEPORT LA  
800 AM CST FRI DEC 02 2022  
 
NOTE: "FAIR" INDICATES FEW OR NO CLOUDS BELOW 12000 FEET  
WITH NO SIGNIFICANT WEATHER AND/OR S TO VISIBILITY
.  
 
!LAZ001-LAZ014-TXZ097-021500  
SHREVEPORT...MONROE...TEXARKANA RADIOS  
 
CITY SKY/WX TMP DP RH WIND PRES REMARKS
 
SHREVEPORT CLOUDY 54 37 54 SE9 30.16F  
MONROE MOSUNNY 48 35 60 SE3 30.25S  
NATCHITOCHES CLOUDY 47 38 70 SE7 30.22S  
TEXARKANA LGT RAIN 49 40 71 S3 30.17S  
ATLANTA CLOUDY 48 42 79 CALM 30.15F  

 
 
!LAZ001-LAZ014-TXZ097-021500  
OTHER LOCATIONS...  
 
CITY SKY/WX TMP DP RH WIND PRES REMARKS
 
DOWNTOWN SHV CLOUDY 52 36 54 S9 30.18F  
BOSSIER CITY CLOUDY 52 35 52 S13 30.16F  
RUSTON PTSUNNY 49 38 64 S12 30.22S  
LITTLE ROCK LGT RAIN 46 34 62 S3 30.22S  
EL DORADO PTSUNNY 47 38 71 SE7 30.20F  
JACKSON MOSUNNY 46 36 68 SE9 30.28F  
NEW ORLEANS PTSUNNY 56 52 86 E5 30.29R  
HOUSTON CLOUDY 59 55 87 SE12 30.16S  
LUFKIN CLOUDY 55 47 74 SE10 30.17S  
TYLER LGT RAIN 51 45 79 S6 30.13S  
DAL FT WORTH CLOUDY 51 48 89 S7 30.08S  

 
 
!TXZ136-TXZ165-021500  
TYLER...LUFKIN RADIOS  
 
CITY SKY/WX TMP DP RH WIND PRES REMARKS
 
TYLER LGT RAIN 51 45 79 S6 30.13S  
GILMER RAIN 49 44 81 CALM 30.14F  
LONGVIEW CLOUDY 55 41 59 S7 30.14S  
LUFKIN CLOUDY 55 47 74 SE10 30.17S  

 
 
!TXZ136-TXZ165-021500  
OTHER LOCATIONS...  
 
CITY SKY/WX TMP DP RH WIND PRES REMARKS
 
NACOGDOCHES CLOUDY 55 48 77 SE9 30.18R  
BEAUMONT CLOUDY 59 56 89 E8 30.20R  
HOUSTON CLOUDY 59 55 87 SE12 30.16S  
COLLEGE STN LGT RAIN 54 52 93 W3 30.15R FOG  
AUSTIN FOG 53 53 100 CALM 30.13S VSB 1  
DAL FT WORTH CLOUDY 51 48 89 S7 30.08S  
TEXARKANA LGT RAIN 49 40 71 S3 30.17S  
SHREVEPORT CLOUDY 54 37 54 SE9 30.16F  
FORT POLK CLOUDY 51 42 70 SE7 30.21S  
LAKE CHARLES CLOUDY 53 48 83 E9 30.22S  

 
 
 
CLICK HERE TO GO TO PREVIOUS BULLETINS.

The Nexlab LA Page
The Nexlab TX Page
The Nexlab AR Page
The Nexlab OK Page Main Text Page